Weather in Kota Kinabalu

Malaysia     5°58′40″N   116°04′23″E
temp.,
°C
wind,
m/s
gust,
m/s
humid.,
%
clouds,
%
prec.,
mm/h
press.,
hPa
HPBL,
m
17 april, sat
sat1723:00+27ese21725 0.0 1012328
02:00+26sse117799 0.0 1010303
05:00+26sse227999 0.0 1010250
08:00+26s2277100 0.1 1013311
11:00+27wsw448296 0.1 1013388
14:00+27wnw447998 0.1 1010421
17:00+28w3374100 0.6 1010547
20:00+28w1271100 0.6 1011683
18 april, sun
sun1823:00+27s1275100 0.1 1013374
02:00+27s338089 0.3 1010391
05:00+27s3477100 0.4 1010581
08:00+27s4475100 0.4 1012439
11:00+28wsw5673100 0.0 1012655
14:00+28wsw677788 0.1 1009534
17:00+27wsw5578100 0.4 1009382
20:00+27wsw3475100 1.8 1012500
19 april, mon
mon1923:00+27ssw5676100 0.8 1012799
02:00+27ssw577798 1.3 1010630
05:00+27ssw6877100 0.4 1010804
08:00+27ssw7977100 0.9 1012907
11:00+27sw677595 0.0 1011835
14:00+28wsw677499 0.1 1009590
17:00+28wsw5676100 1.1 1009397
20:00+28ssw3475100 1.7 1010399
20 april, tue
tue2023:00+27ssw4577100 0.5 1010355
02:00+27s4675100 0.9 1008390
05:00+27s5678100 0.1 1009470
08:00+27ssw5675100 0.4 1011593
11:00+27sw5676100 0.9 1011447
14:00+27wsw6775100 3.1 1009479
17:00+29wsw5569100 0.6 1009873
20:00+29ssw3469100 0.6 1011914
21 april, wed
wed2123:00+28s3474100 0.2 1012402
02:00+27s3474100 0.2 1010338
05:00+27s357697 0.1 1010341
08:00+27s457697 0.1 1012375
11:00+28wsw6673100 0.0 1011446
14:00+28w5572100 0.0 1009426
17:00+29wsw4468100 0.0 1008559
20:00+28sw2369100 0.0 1010696